Location: Bottenau
(48.5138°N, 8.0462°E)
Time: 09:57:26
(UTC+00:00)

Meteor 1-4 Rocket - Pass Details

Date: 18 April 2021
Orbit: 448 x 499 km, 81.2° (Epoch: 05 May)

Event Time Altitude Azimuth Distance (km) Brightness Sun altitude
Exits shadow 21:10:14 32° 31° (NNE) 817 3.8 -23.1°
Drops below altitude 10° 21:12:18 10° 18° (NNE) 1,614 5.6 -23.3°
Sets 21:14:25 0° 15° (NNE) 2,502 6.7 -23.5°
